User: anonymous   Login
Location: Newark
(59.4564°N, 26.6917°E)
Time: 17:45:08
(UTC+00:00)
Language:

Transit 2A - Orbit

View from above orbital plane
View from above orbital plane
View from above satellite
View from above satellite

Ground track
Ground track

The orbit data is extracted from the following two-line orbital elements,

1    45U 60007A   19321.88484642 -.00000024 +00000-0 +20760-4 0  9998
2    45 066.6949 221.0631 0248594 111.0078 251.7809 14.33655937035361
Epoch (UTC): 17 November 2019 21:14:10
Eccentricity: 0.0248594
inclination: 66.6949°
perigee height: 601 km
apogee height: 957 km
right ascension of ascending node: 221.0631°
argument of perigee: 111.0078°
revolutions per day: 14.33655937
mean anomaly at epoch: 251.7809°
orbit number at epoch: 3536

The dashed part of the orbit path shows where the satellite is in the earth's shadow,  

DLR